Change the Weather History Date:

Saturday, February 2, 2013

  Actual Average Record
Temperature  
Mean Temperature 56 °F -  
Max Temperature 61 °F 61 °F 69 °F (2000)
Min Temperature 51 °F 43 °F 33 °F (1999)
Degree Days  
Heating Degree Days 9    
Growing Degree Days 6 (Base 50)    
Moisture  
Dew Point 32 °F    
Average Humidity 36    
Maximum Humidity 76    
Minimum Humidity 14    
Precipitation  
Precipitation 0.03 in - - ()
Sea Level Pressure  
Sea Level Pressure 29.90 in    
Wind  
Wind Speed 19 mph ()    
Max Wind Speed 36 mph    
Max Gust Speed 52 mph    
Visibility 6.5 miles    
Events Rain    
Averages and records for this station are not official NWS values.
T = Trace of Precipitation, MM = Missing Value Source: Averaged Metar Reports

Daily Weather History Graph

Daily Weather History Graph

Search for Another Location

Airport or City:

Trip Planner

Search our weather history database for the weather conditions in past years. The results will help you decide how hot, cold, wet, or windy it might be!

Date:

Astronomy

Feb. 02, 2013 Rise Set
Actual Time 8:06 AM CET 6:26 PM CET
Civil Twilight 7:38 AM CET 6:53 PM CET
Nautical Twilight 7:06 AM CET 7:25 PM CET
Astronomical Twilight 6:35 AM CET 7:56 PM CET
Moon 12:10 AM CET (2/2) 11:13 AM CET (2/2)
Length of Visible Light 11h 15m
Length of Day
10h 19m
Waning Gibbous, 62% of the Moon is Illuminated
Feb 2
Waning Gibbous
Feb 3
Last Quarter
Feb 10
New
Feb 17
First Quarter
Feb 25
Full

Hourly Weather History & Observations

Time (CET) Temp. Dew Point Humidity Pressure Visibility Wind Dir Wind Speed Gust Speed Precip Events Conditions
12:00 AM 66.2 °F 32.0 °F 28% 29.89 in - SW 13.8 mph - N/A   Clear
12:30 AM 66.2 °F 33.8 °F 30% 29.89 in - WSW 13.8 mph - N/A   Clear
1:00 AM 65 °F 30 °F 16% 29.88 in 12 mi West 18.4 mph - -  
1:00 AM 66.2 °F 32.0 °F 28% 29.86 in - West 18.4 mph - N/A   Clear
1:30 AM 62.6 °F 33.8 °F 34% 29.86 in - West 12.7 mph - N/A   Clear
2:00 AM 66.2 °F 32.0 °F 28% 29.86 in - West 12.7 mph - N/A   Clear
2:30 AM 64.4 °F 33.8 °F 32% 29.86 in - WSW 10.4 mph - N/A   Clear
3:00 AM 64.4 °F 35.6 °F 34% 29.86 in - WSW 10.4 mph - N/A   Clear
3:30 AM 64.4 °F 39.2 °F 40% 29.83 in - West 15.0 mph - N/A   Clear
4:00 AM 64.4 °F 42.8 °F 45% 29.80 in - WSW 16.1 mph 28.8 mph N/A   Clear
4:30 AM 62.6 °F 42.8 °F 48% 29.80 in - West 16.1 mph 29.9 mph N/A   Clear
5:00 AM 64.4 °F 41.0 °F 42% 29.80 in - West 23.0 mph 36.8 mph N/A   Clear
5:30 AM 64.4 °F 39.2 °F 40% 29.77 in - West 28.8 mph 46.0 mph N/A   Clear
6:00 AM 64.4 °F 37.4 °F 37% 29.77 in - West 29.9 mph 46.0 mph N/A   Clear
6:30 AM 62.6 °F 37.4 °F 39% 29.77 in - West 24.2 mph 36.8 mph N/A   Clear
7:00 AM 62 °F 37 °F 28% 29.79 in 12 mi West 25.3 mph - -  
7:00 AM 62.6 °F 39.2 °F 42% 29.77 in - West 24.2 mph - N/A   Clear
7:30 AM 55.4 °F 46.4 °F 72% 29.83 in 3.7 mi WNW 33.4 mph 51.8 mph N/A Rain Rain
8:00 AM 53.6 °F 44.6 °F 72% 29.86 in 6.2 mi West 23.0 mph 34.5 mph N/A   Mostly Cloudy
8:30 AM 51.8 °F 44.6 °F 76% 29.86 in 6.2 mi West 15.0 mph 27.6 mph N/A   Mostly Cloudy
9:00 AM 55.4 °F 42.8 °F 63% 29.89 in 6.2 mi West 13.8 mph 26.5 mph N/A   Scattered Clouds
9:30 AM 55.4 °F 42.8 °F 63% 29.89 in 6.2 mi WNW 20.7 mph 33.4 mph N/A   Scattered Clouds
10:00 AM 57.2 °F 39.2 °F 51% 29.89 in 6.2 mi WNW 20.7 mph - N/A   Scattered Clouds
10:30 AM 57.2 °F 35.6 °F 44% 29.92 in 6.2 mi NW 25.3 mph 40.3 mph N/A   Scattered Clouds
11:00 AM 57.2 °F 35.6 °F 44% 29.92 in 6.2 mi WNW 23.0 mph 36.8 mph N/A   Partly Cloudy
11:30 AM 59.0 °F 32.0 °F 36% 29.92 in 6.2 mi NW 24.2 mph 35.7 mph N/A   Partly Cloudy
12:00 PM 59.0 °F 30.2 °F 34% 29.92 in 6.2 mi NW 27.6 mph 40.3 mph N/A   Partly Cloudy
12:30 PM 59.0 °F 28.4 °F 31% 29.92 in 6.2 mi WNW 31.1 mph 46.0 mph N/A   Partly Cloudy
1:00 PM 59 °F 26 °F 17% 29.93 in 25 mi WNW 32.2 mph - -   Scattered Clouds
1:00 PM 60.8 °F 28.4 °F 29% 29.92 in 6.2 mi WNW 29.9 mph 44.9 mph N/A   Partly Cloudy
1:30 PM 60.8 °F 28.4 °F 29% 29.92 in 6.2 mi WNW 31.1 mph 46.0 mph N/A   Partly Cloudy
2:00 PM 60.8 °F 28.4 °F 29% 29.89 in 6.2 mi NW 31.1 mph 47.2 mph N/A   Partly Cloudy
2:30 PM 60.8 °F 28.4 °F 29% 29.89 in 6.2 mi WNW 35.7 mph 51.8 mph N/A   Partly Cloudy
3:00 PM 60.8 °F 30.2 °F 31% 29.89 in 6.2 mi WNW 33.4 mph 49.5 mph N/A   Partly Cloudy
3:30 PM 60.8 °F 28.4 °F 29% 29.89 in 6.2 mi WNW 31.1 mph 42.6 mph N/A   Partly Cloudy
4:00 PM 60.8 °F 28.4 °F 29% 29.89 in 6.2 mi WNW 32.2 mph 46.0 mph N/A   Partly Cloudy
4:30 PM 60.8 °F 28.4 °F 29% 29.92 in 6.2 mi WNW 31.1 mph 43.7 mph N/A   Partly Cloudy
5:00 PM 60.8 °F 26.6 °F 27% 29.92 in 6.2 mi WNW 29.9 mph 41.4 mph N/A   Partly Cloudy
5:30 PM 60.8 °F 24.8 °F 25% 29.92 in 6.2 mi NW 26.5 mph 43.7 mph N/A   Partly Cloudy
6:00 PM 59.0 °F 24.8 °F 27% 29.92 in 6.2 mi WNW 25.3 mph 44.9 mph N/A   Partly Cloudy
6:30 PM 59.0 °F 24.8 °F 27% 29.95 in 6.2 mi WNW 26.5 mph 40.3 mph N/A   Partly Cloudy
7:00 PM 58 °F 22 °F 14% 29.98 in 25 mi NW 24.2 mph - -   Scattered Clouds
7:00 PM 59.0 °F 24.8 °F 27% 29.98 in 6.2 mi NW 23.0 mph 36.8 mph N/A   Partly Cloudy
7:30 PM 57.2 °F 24.8 °F 29% 29.98 in 6.2 mi NW 17.3 mph - N/A   Partly Cloudy
8:00 PM 57.2 °F 21.2 °F 25% 30.01 in 6.2 mi NW 18.4 mph 35.7 mph N/A   Partly Cloudy
8:30 PM 57.2 °F 23.0 °F 27% 30.04 in 6.2 mi NW 11.5 mph 23.0 mph N/A   Partly Cloudy
9:00 PM 55.4 °F 24.8 °F 31% 30.04 in 6.2 mi WNW 18.4 mph 32.2 mph N/A   Partly Cloudy
9:30 PM 55.4 °F 23.0 °F 29% 30.04 in 6.2 mi NW 21.9 mph 35.7 mph N/A   Partly Cloudy
10:00 PM 53.6 °F 26.6 °F 35% 30.04 in - WNW 24.2 mph 38.0 mph N/A   Clear
10:30 PM 53.6 °F 26.6 °F 35% 30.04 in - WNW 25.3 mph - N/A   Clear
11:00 PM 51.8 °F 26.6 °F 38% 30.04 in - WNW 29.9 mph 44.9 mph N/A   Clear
11:30 PM 51.8 °F 28.4 °F 41% 30.06 in - WNW 21.9 mph 38.0 mph N/A   Clear